Time,TemperatureF,DewpointF,PressureIn,WindDirection,WindDirectionDegrees,WindSpeedMPH,WindSpeedGustMPH,Humidity,HourlyPrecipIn,Conditions,Clouds,dailyrainin,SoftwareType,DateUTC
2013-10-11 00:44:00,55.0,-99.9,30.09,North,11,-999.0,9.0,-999,0.00,,,-99.99,,2013-10-11 04:44:00,
2013-10-11 00:52:00,55.0,-99.9,30.08,NE,37,7.0,11.0,-999,0.00,,,-99.99,,2013-10-11 04:52:00,
2013-10-11 01:43:00,55.0,-99.9,30.08,NE,37,7.0,11.0,-999,0.00,,,-99.99,,2013-10-11 05:43:00,
2013-10-11 01:52:00,55.0,-99.9,30.08,NNW,334,3.0,3.0,-999,0.00,,,-99.99,,2013-10-11 05:52:00,
2013-10-11 02:43:00,55.0,-99.9,30.08,NNW,334,3.0,3.0,-999,0.00,,,-99.99,,2013-10-11 06:43:00,
2013-10-11 02:52:00,55.0,-99.9,30.06,North,-999,-999.0,3.0,-999,0.00,,,-99.99,,2013-10-11 06:52:00,
2013-10-11 03:42:00,55.0,-99.9,30.06,North,-999,-999.0,3.0,-999,0.00,,,-99.99,,2013-10-11 07:42:00,
2013-10-11 03:52:00,55.0,-99.9,30.04,NW,309,-999.0,9.0,-999,0.00,,,-99.99,,2013-10-11 07:52:00,
2013-10-11 04:42:00,55.0,-99.9,30.04,NW,309,-999.0,9.0,-999,0.00,,,-99.99,,2013-10-11 08:42:00,
2013-10-11 04:52:00,56.0,-99.9,30.04,NNE,13,-999.0,9.0,-999,0.00,,,-99.99,,2013-10-11 08:52:00,
2013-10-11 05:43:00,56.0,-99.9,30.04,NNE,13,-999.0,9.0,-999,0.00,,,-99.99,,2013-10-11 09:43:00,
2013-10-11 05:52:00,56.0,-99.9,30.05,East,96,3.0,8.0,-999,0.00,,,-99.99,,2013-10-11 09:52:00,
2013-10-11 06:43:00,56.0,-99.9,30.05,East,96,3.0,8.0,-999,0.00,,,-99.99,,2013-10-11 10:43:00,
2013-10-11 06:52:00,56.0,-99.9,30.05,NW,316,5.0,14.0,-999,0.00,,,-99.99,,2013-10-11 10:52:00,
2013-10-11 07:43:00,56.0,-99.9,30.05,NW,316,5.0,14.0,-999,0.00,,,-99.99,,2013-10-11 11:43:00,
2013-10-11 07:52:00,56.0,-99.9,30.06,NE,39,-999.0,7.0,-999,0.00,,,-99.99,,2013-10-11 11:52:00,
2013-10-11 08:42:00,56.0,-99.9,30.06,NE,39,-999.0,7.0,-999,0.00,,,-99.99,,2013-10-11 12:42:00,
2013-10-11 08:52:00,57.0,-99.9,30.08,NE,43,4.0,7.0,-999,0.00,,,-99.99,,2013-10-11 12:52:00,
2013-10-11 09:43:00,57.0,-99.9,30.08,NE,43,4.0,7.0,-999,0.00,,,-99.99,,2013-10-11 13:43:00,
2013-10-11 09:52:00,58.0,-99.9,30.07,NNW,342,-999.0,7.0,-999,0.00,,,-99.99,,2013-10-11 13:52:00,
2013-10-11 10:42:00,58.0,-99.9,30.07,NNW,342,-999.0,7.0,-999,0.00,,,-99.99,,2013-10-11 14:42:00,
2013-10-11 10:52:00,62.0,-99.9,30.06,East,83,5.0,10.0,-999,0.00,,,-99.99,,2013-10-11 14:52:00,
2013-10-11 11:44:00,62.0,-99.9,30.06,East,83,5.0,10.0,-999,0.00,,,-99.99,,2013-10-11 15:44:00,
2013-10-11 11:52:00,62.0,-99.9,30.06,SE,129,6.0,12.0,-999,0.00,,,-99.99,,2013-10-11 15:52:00,
2013-10-11 12:43:00,62.0,-99.9,30.06,SE,129,6.0,12.0,-999,0.00,,,-99.99,,2013-10-11 16:43:00,
2013-10-11 12:52:00,64.0,-99.9,30.04,North,6,5.0,10.0,-999,0.00,,,-99.99,,2013-10-11 16:52:00,
2013-10-11 13:43:00,64.0,-99.9,30.04,North,6,5.0,10.0,-999,0.00,,,-99.99,,2013-10-11 17:43:00,
2013-10-11 13:52:00,62.0,-99.9,30.03,East,87,3.0,13.0,-999,0.01,,,-99.99,,2013-10-11 17:52:00,
2013-10-11 14:43:00,62.0,-99.9,30.03,East,87,3.0,13.0,-999,0.01,,,-99.99,,2013-10-11 18:43:00,
2013-10-11 14:52:00,64.0,-99.9,30.02,North,11,-999.0,9.0,-999,0.00,,,-99.99,,2013-10-11 18:52:00,
2013-10-11 15:43:00,64.0,-99.9,30.02,North,11,-999.0,9.0,-999,0.00,,,-99.99,,2013-10-11 19:43:00,
2013-10-11 15:52:00,64.0,-99.9,30.02,NW,322,5.0,13.0,-999,0.00,,,-99.99,,2013-10-11 19:52:00,
2013-10-11 16:43:00,64.0,-99.9,30.02,NW,322,5.0,13.0,-999,0.00,,,-99.99,,2013-10-11 20:43:00,
2013-10-11 16:52:00,64.0,-99.9,30.04,North,11,-999.0,8.0,-999,0.00,,,-99.99,,2013-10-11 20:52:00,
2013-10-11 17:43:00,64.0,-99.9,30.04,North,11,-999.0,8.0,-999,0.00,,,-99.99,,2013-10-11 21:43:00,
2013-10-11 17:52:00,63.0,-99.9,30.05,NW,318,-999.0,-999.0,-999,0.00,,,-99.99,,2013-10-11 21:52:00,
2013-10-11 18:43:00,63.0,-99.9,30.05,NW,318,-999.0,-999.0,-999,0.00,,,-99.99,,2013-10-11 22:43:00,
2013-10-11 18:52:00,62.0,-99.9,30.06,NE,39,-999.0,-999.0,-999,0.00,,,-99.99,,2013-10-11 22:52:00,
2013-10-11 19:42:00,62.0,-99.9,30.06,NE,39,-999.0,-999.0,-999,0.00,,,-99.99,,2013-10-11 23:42:00,
2013-10-11 19:52:00,62.0,-99.9,30.07,NE,39,-999.0,-999.0,-999,0.00,,,-99.99,,2013-10-11 23:52:00,
2013-10-11 20:42:00,62.0,-99.9,30.07,NE,39,-999.0,-999.0,-999,0.00,,,-99.99,,2013-10-12 00:42:00,
2013-10-11 20:52:00,62.0,-99.9,30.07,NE,39,-999.0,-999.0,-999,0.00,,,-99.99,,2013-10-12 00:52:00,
2013-10-11 21:42:00,62.0,-99.9,30.07,NE,39,-999.0,-999.0,-999,0.00,,,-99.99,,2013-10-12 01:42:00,
2013-10-11 21:52:00,60.0,-99.9,30.09,NE,39,-999.0,-999.0,-999,0.00,,,-99.99,,2013-10-12 01:52:00,
2013-10-11 22:42:00,60.0,-99.9,30.09,NE,39,-999.0,-999.0,-999,0.00,,,-99.99,,2013-10-12 02:42:00,
2013-10-11 22:52:00,59.0,-99.9,30.10,NE,39,-999.0,-999.0,-999,0.00,,,-99.99,,2013-10-12 02:52:00,
2013-10-11 23:44:00,59.0,-99.9,30.10,NE,39,-999.0,-999.0,-999,0.00,,,-99.99,,2013-10-12 03:44:00,
2013-10-11 23:52:00,58.0,-99.9,30.08,NE,39,-999.0,-999.0,-999,0.00,,,-99.99,,2013-10-12 03:52:00,